Time,TemperatureF,DewpointF,PressureIn,WindDirection,WindDirectionDegrees,WindSpeedMPH,WindSpeedGustMPH,Humidity,HourlyPrecipIn,Conditions,Clouds,dailyrainin,SoftwareType,DateUTC
2013-08-16 00:13:00,63.0,55.0,30.12,NW,312,0.0,0.0,74,0.00,,,0.00,,2013-08-16 04:13:00,
2013-08-16 00:23:00,62.0,54.0,30.12,NW,312,0.0,0.0,74,0.00,,,0.00,,2013-08-16 04:23:00,
2013-08-16 00:42:00,62.0,54.0,30.13,NW,312,0.0,0.0,75,0.00,,,0.00,,2013-08-16 04:42:00,
2013-08-16 00:53:00,61.0,54.0,30.13,NW,312,0.0,0.0,77,0.00,,,0.00,,2013-08-16 04:53:00,
2013-08-16 01:12:00,61.0,54.0,30.13,NW,312,0.0,0.0,78,0.00,,,0.00,,2013-08-16 05:12:00,
2013-08-16 01:22:00,61.0,55.0,30.12,NW,312,0.0,0.0,80,0.00,,,0.00,,2013-08-16 05:22:00,
2013-08-16 01:42:00,60.0,53.0,30.12,NW,312,0.0,0.0,79,0.00,,,0.00,,2013-08-16 05:42:00,
2013-08-16 02:00:00,60.0,54.0,30.12,NW,312,0.0,0.0,82,0.00,,,0.00,,2013-08-16 06:00:00,
2013-08-16 03:00:00,58.0,54.0,30.12,NW,312,0.0,0.0,86,0.00,,,0.00,,2013-08-16 07:00:00,
2013-08-16 03:11:00,58.0,54.0,30.12,NW,312,0.0,0.0,87,0.00,,,0.00,,2013-08-16 07:11:00,
2013-08-16 03:21:00,58.0,54.0,30.12,NW,312,0.0,0.0,88,0.00,,,0.00,,2013-08-16 07:21:00,
2013-08-16 03:42:00,58.0,54.0,30.12,NW,312,0.0,0.0,88,0.00,,,0.00,,2013-08-16 07:42:00,
2013-08-16 03:52:00,58.0,54.0,30.12,NW,312,0.0,0.0,88,0.00,,,0.00,,2013-08-16 07:52:00,
2013-08-16 04:11:00,58.0,55.0,30.12,NW,312,0.0,0.0,89,0.00,,,0.00,,2013-08-16 08:11:00,
2013-08-16 04:21:00,58.0,55.0,30.12,NW,312,0.0,0.0,89,0.00,,,0.00,,2013-08-16 08:21:00,
2013-08-16 04:42:00,57.0,54.0,30.12,NW,312,0.0,0.0,89,0.00,,,0.00,,2013-08-16 08:42:00,
2013-08-16 04:52:00,57.0,54.0,30.12,NW,312,0.0,0.0,90,0.00,,,0.00,,2013-08-16 08:52:00,
2013-08-16 05:11:00,57.0,54.0,30.12,NW,312,0.0,0.0,90,0.00,,,0.00,,2013-08-16 09:11:00,
2013-08-16 05:21:00,57.0,54.0,30.12,NW,312,0.0,0.0,90,0.00,,,0.00,,2013-08-16 09:21:00,
2013-08-16 05:42:00,57.0,54.0,30.13,NW,312,0.0,0.0,91,0.00,,,0.00,,2013-08-16 09:42:00,
2013-08-16 05:53:00,56.0,53.0,30.13,NW,312,0.0,0.0,91,0.00,,,0.00,,2013-08-16 09:53:00,
2013-08-16 06:13:00,56.0,53.0,30.12,NW,312,0.0,0.0,91,0.00,,,0.00,,2013-08-16 10:13:00,
2013-08-16 06:23:00,56.0,54.0,30.13,NW,312,0.0,0.0,92,0.00,,,0.00,,2013-08-16 10:23:00,
2013-08-16 06:42:00,56.0,54.0,30.13,NW,312,0.0,0.0,92,0.00,,,0.00,,2013-08-16 10:42:00,
2013-08-16 06:52:00,56.0,54.0,30.14,NW,312,0.0,0.0,93,0.00,,,0.00,,2013-08-16 10:52:00,
2013-08-16 07:12:00,56.0,54.0,30.14,NW,312,0.0,0.0,93,0.00,,,0.00,,2013-08-16 11:12:00,
2013-08-16 07:22:00,56.0,54.0,30.14,NW,312,0.0,0.0,93,0.00,,,0.00,,2013-08-16 11:22:00,
2013-08-16 07:42:00,57.0,55.0,30.14,NW,312,0.0,0.0,93,0.00,,,0.00,,2013-08-16 11:42:00,
2013-08-16 07:52:00,58.0,56.0,30.15,NW,312,0.0,0.0,93,0.00,,,0.00,,2013-08-16 11:52:00,
2013-08-16 08:12:00,59.0,57.0,30.15,NW,312,0.0,0.0,93,0.00,,,0.00,,2013-08-16 12:12:00,
2013-08-16 08:21:00,60.0,58.0,30.15,NW,312,0.0,0.0,92,0.00,,,0.00,,2013-08-16 12:21:00,
2013-08-16 08:42:00,61.0,58.0,30.15,NW,312,0.0,0.0,91,0.00,,,0.00,,2013-08-16 12:42:00,
2013-08-16 08:52:00,63.0,58.0,30.15,NNE,13,0.0,1.0,84,0.00,,,0.00,,2013-08-16 12:52:00,
2013-08-16 09:11:00,64.0,57.0,30.15,ENE,65,0.0,1.0,79,0.00,,,0.00,,2013-08-16 13:11:00,
2013-08-16 09:22:00,66.0,57.0,30.15,ENE,65,0.0,2.0,73,0.00,,,0.00,,2013-08-16 13:22:00,
2013-08-16 09:42:00,68.0,58.0,30.15,ENE,66,0.0,2.0,70,0.00,,,0.00,,2013-08-16 13:42:00,
2013-08-16 09:53:00,70.0,58.0,30.15,ENE,66,0.0,2.0,66,0.00,,,0.00,,2013-08-16 13:53:00,
2013-08-16 10:11:00,72.0,57.0,30.15,ENE,66,0.0,2.0,60,0.00,,,0.00,,2013-08-16 14:11:00,
2013-08-16 10:22:00,73.0,58.0,30.15,North,355,0.0,3.0,60,0.00,,,0.00,,2013-08-16 14:22:00,
2013-08-16 10:42:00,74.0,57.0,30.15,ENE,78,1.0,2.0,55,0.00,,,0.00,,2013-08-16 14:42:00,
2013-08-16 10:52:00,75.0,55.0,30.15,NNW,336,0.0,3.0,50,0.00,,,0.00,,2013-08-16 14:52:00,
2013-08-16 11:12:00,76.0,56.0,30.15,ENE,76,0.0,2.0,50,0.00,,,0.00,,2013-08-16 15:12:00,
2013-08-16 11:22:00,76.0,53.0,30.15,ENE,76,0.0,2.0,45,0.00,,,0.00,,2013-08-16 15:22:00,
2013-08-16 11:43:00,76.0,51.0,30.15,WNW,294,0.0,3.0,41,0.00,,,0.00,,2013-08-16 15:43:00,
2013-08-16 11:56:00,77.0,52.0,30.15,East,84,0.0,2.0,42,0.00,,,0.00,,2013-08-16 15:56:00,
2013-08-16 12:13:00,76.0,51.0,30.15,East,86,0.0,3.0,41,0.00,,,0.00,,2013-08-16 16:13:00,
2013-08-16 12:23:00,76.0,51.0,30.15,East,86,0.0,3.0,41,0.00,,,0.00,,2013-08-16 16:23:00,
2013-08-16 12:43:00,78.0,52.0,30.15,East,84,0.0,2.0,41,0.00,,,0.00,,2013-08-16 16:43:00,
2013-08-16 12:57:00,78.0,54.0,30.15,ENE,63,0.0,3.0,43,0.00,,,0.00,,2013-08-16 16:57:00,
2013-08-16 13:13:00,76.0,52.0,30.16,NNW,340,0.0,3.0,44,0.00,,,0.00,,2013-08-16 17:13:00,
2013-08-16 13:28:00,78.0,52.0,30.15,North,355,0.0,3.0,41,0.00,,,0.00,,2013-08-16 17:28:00,
2013-08-16 13:47:00,78.0,52.0,30.15,SW,229,0.0,2.0,40,0.00,,,0.00,,2013-08-16 17:47:00,
2013-08-16 14:00:00,78.0,54.0,30.14,NW,308,0.0,3.0,43,0.00,,,0.00,,2013-08-16 18:00:00,
2013-08-16 14:15:00,77.0,51.0,30.14,NNW,343,0.0,2.0,40,0.00,,,0.00,,2013-08-16 18:15:00,
2013-08-16 14:28:00,78.0,51.0,30.14,NNW,336,0.0,4.0,39,0.00,,,0.00,,2013-08-16 18:28:00,
2013-08-16 14:50:00,-999.0,-99.9,30.14,NE,35,1.0,3.0,42,0.00,,,0.00,,2013-08-16 18:50:00,
2013-08-16 15:14:00,80.0,54.0,30.13,NNE,15,1.0,2.0,41,0.00,,,0.00,,2013-08-16 19:14:00,
2013-08-16 15:25:00,80.0,51.0,30.13,NE,44,0.0,2.0,37,0.00,,,0.00,,2013-08-16 19:25:00,
2013-08-16 15:46:00,80.0,53.0,30.12,WNW,300,0.0,3.0,39,0.00,,,0.00,,2013-08-16 19:46:00,
2013-08-16 15:55:00,80.0,53.0,30.12,ENE,63,0.0,2.0,40,0.00,,,0.00,,2013-08-16 19:55:00,
2013-08-16 16:11:00,80.0,53.0,30.12,ENE,63,0.0,2.0,40,0.00,,,0.00,,2013-08-16 20:11:00,
2013-08-16 16:23:00,80.0,51.0,30.12,ESE,102,0.0,5.0,37,0.00,,,0.00,,2013-08-16 20:23:00,
2013-08-16 16:44:00,79.0,53.0,30.12,ENE,78,0.0,2.0,41,0.00,,,0.00,,2013-08-16 20:44:00,
2013-08-16 16:52:00,79.0,53.0,30.12,East,94,1.0,4.0,41,0.00,,,0.00,,2013-08-16 20:52:00,
2013-08-16 17:11:00,78.0,53.0,30.12,ENE,59,0.0,4.0,42,0.00,,,0.00,,2013-08-16 21:11:00,
2013-08-16 17:25:00,78.0,52.0,30.12,ENE,59,0.0,1.0,41,0.00,,,0.00,,2013-08-16 21:25:00,
2013-08-16 17:40:00,-999.0,-99.9,30.12,SE,124,0.0,2.0,-999,0.00,,,0.00,,2013-08-16 21:40:00,
2013-08-16 17:53:00,78.0,53.0,30.12,ESE,117,0.0,1.0,42,0.00,,,0.00,,2013-08-16 21:53:00,
2013-08-16 18:13:00,79.0,55.0,30.13,NE,43,0.0,2.0,43,0.00,,,0.00,,2013-08-16 22:13:00,
2013-08-16 18:24:00,78.0,56.0,30.13,East,97,0.0,2.0,47,0.00,,,0.00,,2013-08-16 22:24:00,
2013-08-16 18:43:00,77.0,56.0,30.13,ESE,123,0.0,2.0,48,0.00,,,0.00,,2013-08-16 22:43:00,
2013-08-16 18:52:00,76.0,54.0,30.13,East,87,0.0,1.0,46,0.00,,,0.00,,2013-08-16 22:52:00,
2013-08-16 19:12:00,76.0,54.0,30.14,SSE,157,0.0,2.0,46,0.00,,,0.00,,2013-08-16 23:12:00,
2013-08-16 19:23:00,75.0,54.0,30.14,SSE,157,0.0,1.0,48,0.00,,,0.00,,2013-08-16 23:23:00,
2013-08-16 19:42:00,74.0,52.0,30.14,SSE,157,0.0,0.0,47,0.00,,,0.00,,2013-08-16 23:42:00,
2013-08-16 19:52:00,74.0,54.0,30.15,SE,124,2.0,7.0,49,0.00,,,0.00,,2013-08-16 23:52:00,
2013-08-16 20:12:00,73.0,54.0,30.15,South,183,1.0,5.0,52,0.00,,,0.00,,2013-08-17 00:12:00,
2013-08-16 20:21:00,72.0,54.0,30.15,East,101,0.0,4.0,53,0.00,,,0.00,,2013-08-17 00:21:00,
2013-08-16 20:42:00,71.0,53.0,30.15,SSW,196,0.0,4.0,53,0.00,,,0.00,,2013-08-17 00:42:00,
2013-08-16 20:52:00,71.0,54.0,30.16,WSW,239,0.0,3.0,56,0.00,,,0.00,,2013-08-17 00:52:00,
2013-08-16 21:11:00,70.0,55.0,30.17,ESE,109,0.0,3.0,58,0.00,,,0.00,,2013-08-17 01:11:00,
2013-08-16 21:21:00,69.0,55.0,30.17,South,188,0.0,1.0,60,0.00,,,0.00,,2013-08-17 01:21:00,
2013-08-16 21:42:00,69.0,55.0,30.17,WSW,238,0.0,3.0,62,0.00,,,0.00,,2013-08-17 01:42:00,
2013-08-16 21:52:00,68.0,55.0,30.17,WSW,238,0.0,1.0,64,0.00,,,0.00,,2013-08-17 01:52:00,
2013-08-16 22:11:00,67.0,56.0,30.17,WSW,238,0.0,0.0,67,0.00,,,0.00,,2013-08-17 02:11:00,
2013-08-16 22:21:00,66.0,56.0,30.17,WSW,238,0.0,0.0,69,0.00,,,0.00,,2013-08-17 02:21:00,
2013-08-16 22:42:00,65.0,55.0,30.18,WSW,238,0.0,0.0,71,0.00,,,0.00,,2013-08-17 02:42:00,
2013-08-16 22:52:00,65.0,56.0,30.18,WSW,238,0.0,0.0,73,0.00,,,0.00,,2013-08-17 02:52:00,
2013-08-16 23:11:00,64.0,56.0,30.18,SW,218,0.0,1.0,75,0.00,,,0.00,,2013-08-17 03:11:00,
2013-08-16 23:22:00,64.0,56.0,30.19,SW,219,0.0,0.0,76,0.00,,,0.00,,2013-08-17 03:22:00,
2013-08-16 23:43:00,64.0,57.0,30.19,SW,218,0.0,0.0,77,0.00,,,0.00,,2013-08-17 03:43:00,
2013-08-16 23:53:00,64.0,57.0,30.19,SW,218,0.0,0.0,78,0.00,,,0.00,,2013-08-17 03:53:00,